CZ-4 DEB, 28072

Orbit data source: Space-Track

CZ-4 DEB, 28072 is space debris in SSO originally from a launch on Thu, 14 Oct 1999 UTC launched from the Taiyaun Space Center, China (TSC). Debris objects in space refer to the collection of defunct objects orbiting the Earth. Examples of debris include non-operational satellites, rocket bodies, and fragments generated from explosions, collisions, or faulty payload assembly.

Loading next visibility...
Identifier
28072, 1999-057NC
Orbit
SSO
Country
Flag of CNCN / PRC
Related business
Manufacturer
Unknown
Mission
Spacecraft
Bus & Motor
Unknown
Mass
Unknown
Launch date (UTC)
1999-10-14 (26 years ago)
Launch vehicle
Unknown
Launch site
Taiyaun Space Center, China (TSC)
Object type
Payload
Rocket body
Debris
Shape & HBR
Unknown shape, 0.1 m
Radar Cross Section
Small (<0.1 m²)

Expand to show TLE details & history
Last TLE update: 1 day ago

TLE from 1 day ago
0 CZ-4 DEB
1 28072U 99057NC  25296.11027318  .00001718  00000-0  46243-3 0  9995
2 28072  98.5934 352.6084 0089394  20.0073  10.2354 14.46989027185135
Epoch: 2025-10-23T02:38Z
TLE epoch observation values (Epoch: 2025-10-23T02:38:47.602Z)
Latitude
30.10329°
Longitude
-83.86317°
Altitude
676.724 km
Speed
7.554 km/s
True Right ascension
23h 10m 26s
True Declination
29° 57' 09"
Sunlit
Object was in full shadow at epoch
Visualization orbit readout
Latitude
Unknown
Longitude
Unknown
Altitude
Unknown
Speed
Unknown
Apparent Right ascension
Unknown
Apparent Declination
Unknown
Sunlit
N/A
Visualization observer readout
Local Sidereal Time
02:06:25
Azimuth
Unknown
Elevation
Unknown
Doppler factor
Unknown
Orbital elements
Apogee altitude
796.182 km
Perigee altitude
669.051 km
Semi-major axis
7,110.753 km
Eccentricity
0.00894
Inclination
98.5934°
RAAN
352.6084°
Arg. of periapsis
20.0073°
True anomaly
10.41945°
Mean anomaly
10.2354°
Eccentric anomaly
10.32722°
Mean motion
3.61968 °/min
Orbital period
99.46 mins
BSTAR
0.00046243
Loading maneuver chart data...
Computing Atmospheric mass density...

Documentation

Showing up to 5 results
|